Tracking 31027 objects as of 19-Jul-2025
HD Live streaming from Space Station
objects crossing your sky now

FENGYUN 1C DEB

Track FENGYUN 1C DEB now!
10-day predictions


NORAD ID: 31038
Int'l Code: 1999-025BEG
Perigee: 688.9 km
Apogee: 808.8 km
Inclination: 99.0 °
Period: 99.6 minutes
Semi major axis: 7119 km
RCS: 0.0091 m2 (small)
Launch date: May 10, 1999
Source: People's Republic of China (PRC)
Launch site: Taiyaun Space Center, China (TSC)

Note: This is SATELLITE DEBRIS
Your satellite tracking list
FENGYUN 1C DEB
Track 1 satellite(s)




NASA's NSSDC Master Catalog

Two Line Element Set (TLE):
1 31038U 99025BEG 25199.65976536  .00000945  00000-0  27346-3 0  9996
2 31038  99.0243 274.5574 0084169 306.9148  52.4350 14.45097944961470
Source of the keplerian elements: AFSPC